Tracking 30923 objects as of 1-Jul-2025
HD Live streaming from Space Station
objects crossing your sky now

ONEWEB-0698

Track ONEWEB-0698 now!
10-day predictions
ONEWEB-0698 is classified as:


NORAD ID: 61604
Int'l Code: 2024-188L
Perigee: 1,222.6 km
Apogee: 1,227.1 km
Inclination: 87.9 °
Period: 109.8 minutes
Semi major axis: 7595 km
RCS: Unknown
Launch date: October 20, 2024
Source: United States (US)
Launch site: AIR FORCE WESTERN TEST RANGE (AFWTR)
Your satellite tracking list
COSMOS 1607
Track 1 satellite(s)




NASA's NSSDC Master Catalog

Two Line Element Set (TLE):
1 61604U 24188L   25181.47453116 -.00000420  00000-0 -12202-2 0  9995
2 61604  87.8830  91.2065 0002972  86.1139 274.0329 13.11416912 38371
Source of the keplerian elements: AFSPC